User: anonymous   Login
Location: Unspecified
(0.0000°N, 0.0000°E)
Time: 16:16:42
(UTC+00:00)
Language:

USA 200 - Orbit

View from above orbital plane
View from above orbital plane
View from above satellite
View from above satellite

Ground track
Ground track

The orbit data is extracted from the following two-line orbital elements,

1 32706U 08010A   14361.60570646 -.00000279  00000-0  00000-0 0    08
2 32706  63.1529 104.5405 6953409 267.9799  18.0820  2.00602131    04
Epoch (UTC): 27 December 2014 14:32:13
Eccentricity: 0.6953409
inclination: 63.1529°
perigee height: 1712 km
apogee height: 38644 km
right ascension of ascending node: 104.5405°
argument of perigee: 267.9799°
revolutions per day: 2.00602131
mean anomaly at epoch: 18.0820°
orbit number at epoch: 0

The dashed part of the orbit path shows where the satellite is in the earth's shadow,  

DLR